Meteo Giornale » Osservazioni meteo Italia » Genova-Sestri

ore: 14:50 - Osservazioni Meteo Genova-Sestri
Lat. 44° 25' N Lon. 8° 51' E Alt. 2 metri s.l.m.

nuvoloso Europe/Rome

23 °C

Nuvoloso

Temp. 24 Ore

20 °C

23 °C

Sud-Ovest

11.1 Km/h

Dew point 17 °C

Umidità 68 %

Visibilità  10 Km

Il sole sorge alle ore 05:37

Il sole tramonta alle ore 21:12

Data e Ora Cielo e Fenomeni T °C DP °C Um. % Pres. hPa Vis. km Vento km/h
Oggi h: 14:50 nuvoloso Nuvoloso 23 17 68 1016 10 SO 11.1
Oggi h: 14:20 nuvoloso Nuvoloso 23 16 64 1016 10 S/SO 11.1
Oggi h: 13:50 nuvoloso Nuvoloso 23 16 64 1016 10 SO 11.1
Oggi h: 13:20 nuvoloso Nuvoloso 23 16 64 1016 10 SO 9.3
Oggi h: 12:50 molto_nuvoloso Molto Nuvoloso 22 16 68 1017 10 N 5.5
Oggi h: 12:20 molto_nuvoloso Molto Nuvoloso 22 16 68 1017 10 N 5.5
Oggi h: 11:50 molto_nuvoloso Molto Nuvoloso 21 17 77 1017 10 N 5.5
Oggi h: 11:20 molto_nuvoloso Molto Nuvoloso 21 17 77 1017 10 N 5.5
Oggi h: 10:50 molto_nuvoloso Molto Nuvoloso 21 17 77 1017 10 N 5.5
Oggi h: 10:20 molto_nuvoloso Molto Nuvoloso 21 17 77 1016 10 N 5.5
Oggi h: 09:50 molto_nuvoloso Molto Nuvoloso 21 17 77 1016 10 N 5.5
Oggi h: 09:20 molto_nuvoloso Molto Nuvoloso 21 17 77 1016 10 N 5.5
Oggi h: 08:50 molto_nuvoloso Molto Nuvoloso 21 17 77 1016 10 N 5.5
Oggi h: 08:20 molto_nuvoloso Molto Nuvoloso 21 17 77 1016 10 N 5.5
Oggi h: 07:50 molto_nuvoloso Molto Nuvoloso 20 17 82 1016 10 N 5.5
Oggi h: 07:20 molto_nuvoloso Molto Nuvoloso 20 17 82 1015 10 O/SO 7.4
Oggi h: 06:50 nuvoloso Nuvoloso 20 17 82 1015 10 N 5.5
Oggi h: 06:20 nuvoloso Nuvoloso 20 17 82 1015 10 N 5.5
Oggi h: 05:50 nuvoloso Nuvoloso 20 17 82 1015 10 N 3.7
Oggi h: 05:20 nuvoloso Nuvoloso 20 17 82 1015 10 N 3.7
Oggi h: 04:50 molto_nuvoloso Molto Nuvoloso 20 17 82 1015 10 N 3.7
Oggi h: 03:50 molto_nuvoloso Molto Nuvoloso 20 17 82 1015 10 S/SE 7.4
Oggi h: 02:50 molto_nuvoloso Molto Nuvoloso 20 17 82 1016 10 N 5.5
Oggi h: 01:50 molto_nuvoloso Molto Nuvoloso 20 17 82 1016 10 N 5.5
Oggi h: 01:20 molto_nuvoloso Molto Nuvoloso 20 17 82 1016 10 N 3.7
Oggi h: 00:50 molto_nuvoloso Molto Nuvoloso 20 17 82 1016 10 N 3.7
Oggi h: 00:20 molto_nuvoloso Molto Nuvoloso 20 16 77 1016 10 N 3.7
Ieri h: 23:50 molto_nuvoloso Molto Nuvoloso 20 16 77 1016 10 N 3.7
Ieri h: 23:20 molto_nuvoloso Molto Nuvoloso 20 17 82 1016 10 N 3.7
Ieri h: 22:50 molto_nuvoloso Molto Nuvoloso 20 17 82 1016 10 SO 7.4
Ieri h: 22:20 nuvoloso Nuvoloso 20 17 82 1016 10 N 5.5
Ieri h: 21:50 nuvoloso Nuvoloso 20 18 88 1016 10 S/SO 9.3
Ieri h: 21:20 nuvoloso Nuvoloso 21 18 82 1016 10 S/SO 9.3
Ieri h: 20:50 molto_nuvoloso Molto Nuvoloso 21 18 82 1015 10 S/SE 9.3
Ieri h: 20:20 molto_nuvoloso Molto Nuvoloso 21 18 82 1015 10 S 7.4
Ieri h: 19:50 molto_nuvoloso Molto Nuvoloso 21 18 82 1015 10 S 7.4
Ieri h: 19:20 nuvoloso Nuvoloso 21 18 82 1015 10 SE 7.4
Ieri h: 18:50 nuvoloso Nuvoloso 21 18 82 1015 10 N 5.5
Ieri h: 18:20 nuvoloso Nuvoloso 22 18 78 1015 10 S 7.4
Ieri h: 17:50 nuvoloso Nuvoloso 22 18 78 1015 10 SO 7.4
Ieri h: 17:20 nuvoloso Nuvoloso 23 19 78 1016 10 SO 13
Ieri h: 16:20 nuvoloso Nuvoloso 23 19 78 1016 10 SO 11.1
Ieri h: 15:50 nuvoloso Nuvoloso 23 19 78 1016 10 S 9.3